weather.gov     
National Weather Service

Terminal Aerodrome Forecast
NWS Homepage
This page is being discontinued on March 12, 2014.
The same data is available at this site. Please update your bookmarks.
Thank you, and we apologize for the inconvenience.
Please send an email to SR-SRH.Webmaster@noaa.gov with any concerns.


Current Version
Previous Version:    01  02  03  04  05  06  07  08  09  10  11  12  13  14  
[Printable]
842
FTUS41 KBOX 252325
TAFHYA
TAF
KHYA 252325Z 2600/2624 30008KT P6SM SCT200
     FM260500 35006KT P6SM FEW150
     FM260900 02004KT P6SM BKN035
     FM261400 06008KT P6SM OVC025
     FM261700 06012G22KT P6SM OVC020
     FM262100 06015G28KT 2SM -SN OVC015=


842
FTUS41 KBOX 252325
TAFHYA
TAF
KHYA 252325Z 2600/2624 30008KT P6SM SCT200
     FM260500 35006KT P6SM FEW150
     FM260900 02004KT P6SM BKN035
     FM261400 06008KT P6SM OVC025
     FM261700 06012G22KT P6SM OVC020
     FM262100 06015G28KT 2SM -SN OVC015=




U.S. Dept. of Commerce
NOAA National Weather Service
1325 East West Highway
Silver Spring, MD 20910
E-mail: w-nws.webmaster@noaa.gov
Page last modified: May 16, 2007
NATIONAL WEATHER SERVICE: for Safety, for Work, for Fun - FOR LIFE